sat.trackr.live / text

‹ back to catalog

STARLINK-30361

NORAD 57743 · 2023-131M

PAYLOAD ACTIVE UNKNOWN

§ Identity

Operator
Country
US
Launch date
2023-09-01
Launch site
AFETR
Launch vehicle
Mass (kg)
RCS (m²)

Purposes: comms

External: N2YO · Heavens-Above · Gunter

§ Orbital elements

Epoch: 2026-05-25T03:51:24.529248Z

Period
94.27 min
Inclination
42.9995°
Eccentricity
0.0001409
Mean motion
15.27607182 rev/d
Perigee alt
482.0 km
Apogee alt
483.9 km
Semi-major
6,861.1 km
B*
4.0305e-4
RAAN
100.4207°
Arg perigee
269.6983°
Mean anomaly
90.3707°
Rev number
15,160

§ Raw data

STARLINK-303611 57743U 23131M   26145.16070057  .00010854  00000+0  40305-3 0  99922 57743  42.9995 100.4207 0001409 269.6983  90.3707 15.27607182151605

JSON: /api/v1/satellites/57743 · /tle

For live sub-satellite position, see the globe view (requires WebGL).

§ Visibility from observer

Set your observer location to see the next 7 days of passes ≥ 10°. The values pass through the URL so the page stays shareable.

No JS? Fill the form by hand. The geolocation button needs JavaScript.